EW1701 Weather Reports


Display with metric or nautical units.
time (UTC)temp
F
wind
direction
speed
MPH
gust
MPH
rain 1hr
in
rain 24hr
in
rain mn
in
humidity
%
barometer
mb
20260502163057 63 251 1.0 5.0 0.00 0.00 0.00 44 1013.6
20260502161551 64 195 2.0 6.0 0.00 0.00 0.00 43 1013.6
20260502151607 66 173 3.0 9.0 0.00 0.00 0.00 40 1014.3
20260502123043 66 255 2.0 7.0 0.00 0.00 0.00 42 1015.3
20260502121542 67 223 1.0 6.0 0.00 0.00 0.00 40 1015.4
20260502114546 65 249 2.0 11.0 0.00 0.00 0.00 44 1015.3
20260502113046 66 230 2.0 12.0 0.00 0.00 0.00 42 1015.5
20260502111545 62 244 1.0 9.0 0.00 0.00 0.00 47 1015.6
20260502110053 65 224 1.0 10.0 0.00 0.00 0.00 43 1015.5
20260502104602 62 0 1.0 9.0 0.00 0.00 0.00 47 1015.6
20260502103054 64 253 0.0 9.0 0.00 0.00 0.00 45 1015.5
20260502101602 64 221 2.0 7.0 0.00 0.00 0.00 46 1015.6
20260502070113 54 0 2.0 7.0 0.00 0.00 0.00 60 1015.9
20260502064550 53 267 2.0 7.0 0.00 0.00 0.00 63 1016.0
20260502063057 52 264 2.0 8.0 0.00 0.00 0.00 65 1016.3
20260502061549 50 0 1.0 4.0 0.00 0.00 0.00 65 1016.1
20260502060052 50 205 0.0 4.0 0.00 0.00 0.00 65 1016.1
20260502054605 50 237 1.0 6.0 0.00 0.00 0.00 65 1016.1
20260502053054 50 233 1.0 5.0 0.00 0.00 0.00 65 1016.2
20260502051554 49 182 2.0 4.0 0.00 0.00 0.00 65 1016.2
20260502050054 49 205 2.0 5.0 0.00 0.00 0.00 65 1016.3
20260502044550 49 213 1.0 4.0 0.00 0.00 0.00 65 1016.3
20260502043105 49 0 0.0 3.0 0.00 0.00 0.00 65 1016.2
20260502041610 49 197 0.0 2.0 0.00 0.00 0.00 64 1016.2
20260502040104 49 197 0.0 1.0 0.00 0.00 0.00 64 1016.2
20260502034546 49 0 0.0 1.0 0.00 0.00 0.00 64 1016.2
20260502033053 49 0 0.0 3.0 0.00 0.00 0.00 64 1016.3
20260502031549 49 0 0.0 3.0 0.00 0.00 0.00 64 1016.2
20260502030109 49 258 2.0 6.0 0.00 0.00 0.00 64 1016.2
20260502024602 50 0 1.0 6.0 0.00 0.00 0.00 64 1016.3
20260502023124 50 178 0.0 6.0 0.00 0.00 0.00 64 1016.6
20260502021550 50 191 1.0 6.0 0.00 0.00 0.00 63 1016.8
20260502020046 51 223 2.0 6.0 0.00 0.00 0.00 63 1016.8
20260502014551 51 199 2.0 7.0 0.00 0.00 0.00 63 1016.8
20260502013053 52 234 2.0 5.0 0.00 0.00 0.00 63 1017.0
20260502011602 52 0 0.0 3.0 0.00 0.00 0.00 63 1017.1
20260502010052 52 184 2.0 10.0 0.00 0.00 0.00 63 1017.2
20260502004548 52 212 2.0 8.0 0.00 0.00 0.00 63 1017.4
20260502003046 52 206 2.0 10.0 0.00 0.00 0.00 63 1017.3
20260502001557 52 205 1.0 5.0 0.00 0.00 0.00 64 1017.5
20260502000058 53 0 0.0 1.0 0.00 0.00 0.00 64 1017.6
20260501234553 53 207 2.0 5.0 0.00 0.00 0.00 63 1017.6
20260501233104 54 0 1.0 3.0 0.00 0.00 0.00 62 1017.6
20260501231605 54 228 1.0 7.0 0.00 0.00 0.00 62 1017.6
20260501230113 55 243 0.0 3.0 0.00 0.00 0.00 62 1017.7
20260501224556 56 245 0.0 2.0 0.00 0.00 0.00 59 1017.7
20260501223055 56 217 1.0 4.0 0.00 0.00 0.00 59 1017.7
20260501221542 56 225 2.0 6.0 0.00 0.00 0.00 59 1017.6
20260501220105 56 207 2.0 7.0 0.00 0.00 0.00 59 1017.7
20260501214547 57 215 1.0 5.0 0.00 0.00 0.00 57 1017.7
20260501213047 57 228 1.0 5.0 0.00 0.00 0.00 57 1017.7
20260501211544 58 196 2.0 4.0 0.00 0.00 0.00 56 1017.8
20260501210051 58 224 1.0 5.0 0.00 0.00 0.00 56 1017.7
20260501204551 58 199 3.0 7.0 0.00 0.00 0.00 56 1017.8
20260501203048 59 0 2.0 6.0 0.00 0.00 0.00 55 1017.9
20260501201547 59 223 0.0 4.0 0.00 0.00 0.00 54 1017.9
20260501200046 60 0 0.0 4.0 0.00 0.00 0.00 52 1017.7
20260501194552 60 0 0.0 4.0 0.00 0.00 0.00 51 1017.7
20260501193044 61 0 0.0 5.0 0.00 0.00 0.00 50 1017.5
20260501191555 61 0 0.0 5.0 0.00 0.00 0.00 49 1017.3
20260501190048 62 264 0.0 2.0 0.00 0.00 0.00 49 1017.3
20260501184548 63 0 0.0 4.0 0.00 0.00 0.00 47 1017.3
20260501183048 64 0 0.0 4.0 0.00 0.00 0.00 46 1017.2
20260501181545 65 267 1.0 5.0 0.00 0.00 0.00 45 1017.1
20260501180048 66 242 3.0 7.0 0.00 0.00 0.00 44 1017.1
20260501174545 67 261 2.0 7.0 0.00 0.00 0.00 43 1017.2
20260501173105 69 268 1.0 4.0 0.00 0.00 0.00 43 1017.1